SKYSAT C6

导读 | 星芒AI

SKYSAT C6 是 Skybox Imaging(现为 Planet Labs 旗下)发射的一颗高分辨率商业地球观测卫星,于2013年发射。该卫星具备亚米级(约0.5米)全色和4米多光谱成像能力,支持快速重访和任务规划,广泛应用于农业、城市规划、灾害监测等领域。SKYSAT C6 采用先进的光学传感器和高精度姿态控制系统,能够提供高质量的影像数据,增强了实时监测和分析能力,是商业遥感领域的重要资产。

基本信息
目录编号:
42992
目录名称:
SKYSAT C6
国际标识:
2017-068F
轨道中心:
EARTH
卫星名称:
SKYSAT C6
卫星全名:
--
卫星状态:
在轨 (已飞行2920 天)
发射日期:
2017-10-31 UTC
国别 :
美国 (US)
星等 :
--
轨道信息
数据来源 国际轨道数据
星历时间: 2025-10-28T16:20:01+0800
1天前
查看轨道信息
半长轴: 6850.68km
偏心率: 0.0004062
轨道倾角: 97.428°
近地点辐角 165.712°
升交点赤经 72.740°
平近点角 194.424°
近地点: 469.762km
远地点: 475.328km
周期: 94.050分钟
每日圈数: 15.310956
详细信息
使用方式:
暂无
2D轨道图
3D轨道图
轨道高度分析图
轨道倾角分析图
轨道综合分析图
查看轨道综合分析图